[[{"header":{"parameterUnit":"m.s-1","parameterCategory":1,"la1":30.2991,"la2":30.254,"lo1":-89.0895,"lo2":-89.0444,"dy":0.0017,"dx":0.0017,"nx":28,"ny":28,"refTime":"2024-05-16T03:00:00:Z","depth":0,"parameterNumber":2,"parameterNumberName":"U-component_of_WINDS"},"data":[0,0,0,0,0,0,0,0,0,0,0,0,0,0,0,0,0,0,0,0,0,0,0,0,0,0,0,0,0,0,0,0,0,0,0,0,0,0,0,0,0,0,0,0,0,0,0,0,0,0,0,0,0,0,0,0,0,0,-1.9022,-1.9021,0,-1.9008,-1.9008,-1.9008,-1.9011,-1.9012,-1.9012,-1.9012,-1.8996,-1.8996,-1.8995,0,0,0,0,0,0,0,0,0,0,0,0,0,-1.9049,-1.9048,-1.9022,-1.9021,-1.9021,-1.9008,-1.9008,-1.9008,-1.9011,-1.9012,-1.9012,-1.9012,-1.8997,-1.8996,-1.8995,0,0,0,0,0,0,0,0,0,0,0,0,0,-1.9036,-1.9048,-1.9022,-1.9022,-1.9021,-1.9008,-1.9008,-1.9008,-1.9011,-1.9012,-1.9012,-1.9013,-1.8997,-1.8996,-1.8995,-1.898,0,0,-1.8992,-1.8991,0,0,0,0,0,0,0,0,-1.9037,-1.9035,-1.9022,-1.9022,-1.9021,-1.9012,-1.9012,-1.8998,-1.9011,-1.9015,-1.9012,-1.9013,-1.9001,-1.9,-1.8996,-1.8979,-1.8979,-1.8992,-1.8991,-1.8991,-1.899,0,0,0,0,0,0,0,-1.9038,-1.9036,-1.9016,-1.9022,-1.9021,-1.9022,-1.902,-1.9009,-1.9006,-1.9015,-1.9015,-1.9013,-1.9001,-1.8997,-1.8996,-1.8979,-1.8992,-1.8991,-1.899,-1.899,-1.8948,-1.8948,0,0,0,0,0,0,-1.9039,-1.9037,-1.9017,-1.9016,-1.903,-1.9021,-1.9019,-1.9014,-1.9006,-1.9005,-1.9013,-1.9014,-1.8999,-1.8997,-1.8995,-1.8977,-1.8991,-1.899,-1.8989,-1.8949,-1.8948,-1.8948,0,0,0,0,0,0,-1.904,-1.9037,-1.9017,-1.9026,-1.9024,-1.902,-1.9014,-1.9014,-1.901,-1.9005,-1.9004,-1.901,-1.8999,-1.8997,-1.8984,-1.8976,-1.8989,-1.8988,-1.8949,-1.8949,-1.8948,-1.894,0,0,0,0,0,0,-1.904,-1.9038,-1.9032,-1.9026,-1.9023,-1.9006,-1.9014,-1.9013,-1.9009,-1.9009,-1.9002,-1.9001,-1.8999,-1.8985,-1.8983,-1.8975,-1.8987,-1.895,-1.8949,-1.8948,-1.8941,-1.8939,-1.8938,0,0,0,0,0,-1.9041,-1.903,-1.9032,-1.903,-1.9017,-1.9006,-1.9004,-1.9003,-1.9008,-1.9002,-1.8999,-1.9001,-1.8978,-1.8984,-1.8981,-1.8973,-1.8951,-1.8949,-1.8948,-1.8942,-1.894,-1.8938,0,0,0,0,0,0,-1.9035,-1.9029,-1.9031,-1.9018,-1.9013,-1.9007,-1.8999,-1.9001,-1.8994,-1.8995,-1.8993,-1.8991,-1.8978,-1.8975,-1.8982,-1.8958,-1.8965,-1.8963,-1.8961,-1.8959,-1.8957,-1.8957,-1.8987,0,0,0,0,0,-1.9032,-1.9024,-1.902,-1.9009,-1.9006,-1.9003,-1.8999,-1.8998,-1.8992,-1.899,-1.8986,-1.8979,-1.897,-1.8965,-1.8956,-1.8941,-1.8939,-1.8934,-1.8933,-1.8931,-1.8929,-1.892,-1.8917,-1.8944,-1.8944,-1.8944,0,0,-1.9025,-1.9022,-1.9017,-1.9007,-1.9003,-1.8994,-1.9001,-1.8992,-1.8985,-1.8988,-1.8976,-1.8972,-1.8965,-1.8951,-1.8944,-1.8947,-1.8922,-1.893,-1.8929,-1.8927,-1.8919,-1.8916,-1.8914,-1.8943,-1.8944,-1.8944,0,0,-1.9009,-1.9006,-1.8996,-1.8992,-1.8986,-1.8984,-1.8982,-1.8976,-1.8974,-1.8962,-1.8964,-1.8956,-1.8941,-1.8935,-1.8931,-1.8913,-1.8914,-1.891,-1.8901,-1.8892,-1.889,-1.8888,-1.888,-1.8878,-1.8909,-1.8909,-1.8909,0,-1.9002,-1.8989,-1.899,-1.8981,-1.8976,-1.898,-1.8969,-1.8965,-1.8956,-1.8952,-1.8956,-1.8938,-1.8933,-1.8917,-1.8913,-1.8909,-1.8906,-1.891,-1.889,-1.8888,-1.8887,-1.8879,-1.8877,-1.8908,-1.8908,-1.8908,-1.8908,0,-1.898,-1.8972,-1.8964,-1.8956,-1.8951,-1.8941,-1.8939,-1.8934,-1.8934,-1.8932,-1.8919,-1.8914,-1.8905,-1.8901,-1.8902,-1.8885,-1.8887,-1.8891,-1.8897,-1.8884,-1.8877,-1.8874,-1.8908,-1.8908,-1.8908,-1.8908,0,0,-1.8958,-1.8951,-1.8948,-1.8944,-1.8938,-1.8931,-1.8921,-1.8913,-1.8907,-1.8902,-1.8892,-1.888,-1.8884,-1.8878,-1.8878,-1.887,-1.8855,-1.8875,-1.8875,-1.887,-1.8836,-1.8832,-1.8829,-1.8857,-1.8856,-1.8856,-1.8836,0,-1.894,-1.8923,-1.8923,-1.8907,-1.8899,-1.8902,-1.8894,-1.8888,-1.8886,-1.8878,-1.8876,-1.8867,-1.8873,-1.8869,-1.8862,-1.8859,-1.8848,-1.886,-1.8847,-1.8846,-1.8847,-1.8825,-1.8821,-1.8802,-1.8833,-1.8833,-1.8833,0,-1.8916,-1.891,-1.8893,-1.8888,-1.8885,-1.8877,-1.8869,-1.8862,-1.8856,-1.8855,-1.8849,-1.885,-1.8839,-1.8847,-1.8832,-1.884,-1.8835,-1.8832,-1.8832,-1.8829,-1.8837,-1.882,-1.8796,-1.8793,-1.8829,-1.8829,-1.8829,0,-1.89,-1.8888,-1.8876,-1.8873,-1.8867,-1.8861,-1.8858,-1.8853,-1.8848,-1.8841,-1.8837,-1.8829,-1.8824,-1.8817,-1.8816,-1.8822,-1.8799,-1.8808,-1.8797,-1.8797,-1.8791,-1.8791,-1.8764,-1.879,-1.879,-1.879,-1.879,0,-1.8879,-1.8868,-1.8868,-1.8861,-1.8848,-1.8849,-1.8837,-1.8835,-1.883,-1.8821,-1.8825,-1.8816,-1.8816,-1.8807,-1.8806,-1.8793,-1.8791,-1.8789,-1.8788,-1.8788,-1.8788,-1.8783,-1.8783,-1.879,-1.879,-1.879,-1.879,0,-1.8858,-1.8858,-1.8845,-1.8841,-1.8839,-1.883,-1.8826,-1.8819,-1.8818,-1.8807,-1.8804,-1.8802,-1.8792,-1.8791,-1.8779,-1.8778,-1.8761,-1.8763,-1.8763,-1.8763,-1.8752,-1.8752,-1.8719,-1.8715,-1.8746,-1.8746,-1.8745,0,-1.8843,-1.8835,-1.883,-1.8825,-1.8822,-1.8814,-1.8809,-1.881,-1.8804,-1.8797,-1.879,-1.8781,-1.8773,-1.8757,-1.8754,-1.8745,-1.8745,-1.8734,-1.8743,-1.8743,-1.8743,-1.8743,-1.8741,-1.8732,-1.8731,-1.8731,-1.8731,0,-1.8817,-1.8818,-1.8811,-1.8804,-1.8798,-1.8792,-1.8786,-1.8782,-1.8782,-1.8775,-1.8766,-1.876,-1.8748,-1.8738,-1.8729,-1.8726,-1.8728,-1.8728,-1.8725,-1.8723,-1.8723,-1.8721,-1.8757,-1.8729,-1.8729,-1.8729,-1.8729,-1.8729,-1.8798,-1.8791,-1.8786,-1.8778,-1.8774,-1.8769,-1.8762,-1.876,-1.8752,-1.8743,-1.8744,-1.8733,-1.8727,-1.8716,-1.8712,-1.8702,-1.8706,-1.8701,-1.87,-1.8698,-1.8697,-1.8726,-1.8701,-1.8701,-1.8701,-1.8701,-1.8701,0,-1.8771,-1.8769,-1.8761,-1.8754,-1.8747,-1.8751,-1.8746,-1.8739,-1.873,-1.8725,-1.8718,-1.8706,-1.8697,-1.8693,-1.8684,-1.8677,-1.8677,-1.8674,-1.8674,-1.8672,-1.8695,-1.8698,-1.8674,-1.8674,-1.8674,-1.8674,-1.8674,-1.8674,-1.8756,-1.8743,-1.8743,-1.8729,-1.8726,-1.8716,-1.8712,-1.8707,-1.8703,-1.869,-1.8683,-1.8681,-1.8676,-1.8667,-1.8658,-1.8657,-1.8653,-1.8648,-1.8648,-1.8668,-1.8671,-1.8674,-1.8676,-1.8648,-1.8648,-1.8626,-1.8626,-1.8626]},{"header":{"parameterUnit":"m.s-1","parameterCategory":1,"la1":30.2991,"la2":30.254,"lo1":-89.0895,"lo2":-89.0444,"dy":0.0017,"dx":0.0017,"nx":28,"ny":28,"refTime":"2024-05-16T03:00:00:Z","depth":0,"parameterNumber":3,"parameterNumberName":"V-component_of_WINDS"},"data":[0,0,0,0,0,0,0,0,0,0,0,0,0,0,0,0,0,0,0,0,0,0,0,0,0,0,0,0,0,0,0,0,0,0,0,0,0,0,0,0,0,0,0,0,0,0,0,0,0,0,0,0,0,0,0,0,0,0,0.7797,0.7797,0,0.7807,0.7807,0.7808,0.7848,0.7849,0.785,0.785,0.786,0.786,0.7859,0,0,0,0,0,0,0,0,0,0,0,0,0,0.7811,0.781,0.7797,0.7797,0.7797,0.7807,0.7807,0.7808,0.7848,0.7849,0.785,0.7851,0.7861,0.786,0.7859,0,0,0,0,0,0,0,0,0,0,0,0,0,0.7811,0.781,0.7797,0.7818,0.782,0.7807,0.7807,0.7808,0.7847,0.7849,0.785,0.7851,0.7861,0.786,0.7859,0.7826,0,0,0.7856,0.7856,0,0,0,0,0,0,0,0,0.7811,0.7811,0.7815,0.7817,0.7819,0.7828,0.7816,0.7814,0.7847,0.7837,0.785,0.7852,0.7848,0.7848,0.7847,0.7826,0.7827,0.7856,0.7856,0.7855,0.7855,0,0,0,0,0,0,0,0.7811,0.781,0.7801,0.7815,0.7817,0.7827,0.7829,0.7816,0.7835,0.7838,0.7841,0.7842,0.785,0.7848,0.7848,0.7827,0.7856,0.7855,0.7855,0.7855,0.778,0.7779,0,0,0,0,0,0,0.7808,0.781,0.7801,0.7801,0.7818,0.7826,0.7828,0.7823,0.7835,0.7838,0.784,0.7843,0.7849,0.7849,0.7848,0.7811,0.7855,0.7854,0.7854,0.7782,0.778,0.7778,0,0,0,0,0,0,0.7808,0.7807,0.78,0.7806,0.7806,0.7824,0.7819,0.7823,0.7822,0.7837,0.784,0.7836,0.785,0.785,0.7831,0.7812,0.7854,0.7853,0.7783,0.7781,0.7779,0.7736,0,0,0,0,0,0,0.7808,0.7807,0.7794,0.7806,0.7806,0.7783,0.7818,0.7822,0.782,0.7824,0.7833,0.7836,0.7851,0.7833,0.7831,0.7812,0.7853,0.7785,0.7782,0.778,0.7739,0.7732,0.7726,0,0,0,0,0,0.7809,0.7781,0.7793,0.7792,0.7791,0.7782,0.7782,0.78,0.7818,0.7806,0.7816,0.7836,0.7814,0.783,0.7828,0.7809,0.7786,0.7783,0.778,0.7742,0.7733,0.7727,0,0,0,0,0,0,0.7766,0.7783,0.7797,0.7772,0.7775,0.7788,0.7773,0.7791,0.7788,0.7792,0.7815,0.7816,0.7795,0.78,0.7818,0.7778,0.7804,0.78,0.7775,0.7768,0.7762,0.7761,0.7852,0,0,0,0,0,0.7754,0.7745,0.776,0.7737,0.7738,0.7755,0.7752,0.7766,0.777,0.7771,0.778,0.7783,0.7777,0.7773,0.7768,0.774,0.7743,0.7725,0.7719,0.7714,0.7711,0.7697,0.7689,0.7768,0.7768,0.7768,0,0,0.7728,0.7736,0.7729,0.7729,0.7733,0.7723,0.7756,0.7745,0.7738,0.777,0.7753,0.776,0.7764,0.7741,0.7731,0.7745,0.769,0.771,0.7706,0.7705,0.7693,0.7685,0.7679,0.7765,0.7766,0.7766,0,0,0.7677,0.7682,0.7664,0.7667,0.7674,0.7685,0.7681,0.7692,0.7698,0.7682,0.7705,0.7698,0.7687,0.7689,0.7689,0.764,0.7658,0.7638,0.7606,0.7592,0.7586,0.758,0.7563,0.7557,0.7634,0.7634,0.7634,0,0.7644,0.7632,0.7652,0.7639,0.7639,0.7667,0.7649,0.7651,0.7655,0.7654,0.7669,0.7657,0.7662,0.764,0.7628,0.7627,0.7623,0.7637,0.7585,0.758,0.7575,0.7559,0.7553,0.7632,0.7632,0.7632,0.7632,0,0.7592,0.7582,0.7567,0.757,0.7568,0.7552,0.7571,0.7565,0.758,0.759,0.7574,0.7581,0.7579,0.7574,0.7588,0.7555,0.7563,0.7581,0.7608,0.7565,0.755,0.7544,0.7628,0.7629,0.763,0.763,0,0,0.7513,0.7529,0.7523,0.7526,0.7535,0.7528,0.7514,0.7512,0.7508,0.7509,0.7498,0.7489,0.7506,0.7506,0.752,0.7508,0.7469,0.7528,0.7528,0.7517,0.7434,0.742,0.7413,0.7482,0.748,0.748,0.7434,0,0.7465,0.7442,0.7461,0.7435,0.7427,0.7454,0.7442,0.7446,0.7456,0.745,0.746,0.7454,0.7477,0.7477,0.7466,0.7476,0.7453,0.748,0.7472,0.7471,0.747,0.7405,0.7391,0.7347,0.7428,0.7427,0.7426,0,0.7406,0.7406,0.7379,0.7391,0.7388,0.7377,0.7377,0.7371,0.7377,0.7385,0.7385,0.7403,0.739,0.7416,0.7398,0.7416,0.7414,0.7419,0.7417,0.7418,0.7446,0.7404,0.7333,0.7327,0.7417,0.7418,0.7419,0,0.7352,0.7345,0.7329,0.733,0.7343,0.7334,0.7339,0.7346,0.7344,0.7345,0.7344,0.7342,0.7341,0.7339,0.7356,0.7374,0.7337,0.7364,0.7343,0.7343,0.7334,0.7335,0.7263,0.7332,0.7332,0.7332,0.7333,0,0.7296,0.7279,0.7305,0.7295,0.7276,0.7298,0.7279,0.7287,0.7293,0.7284,0.7308,0.73,0.7322,0.7316,0.7329,0.7314,0.7313,0.7319,0.7322,0.7317,0.7316,0.7316,0.7319,0.7331,0.7331,0.7331,0.7332,0,0.7233,0.725,0.7234,0.7248,0.7251,0.7237,0.7249,0.724,0.7251,0.724,0.7239,0.7256,0.7251,0.7268,0.7264,0.7273,0.725,0.7259,0.7248,0.7251,0.7229,0.7231,0.7155,0.7146,0.7221,0.722,0.7219,0,0.7197,0.7184,0.7197,0.7194,0.7198,0.7192,0.719,0.7211,0.7208,0.7214,0.7204,0.7201,0.7199,0.7189,0.7201,0.7199,0.7208,0.7181,0.7208,0.7203,0.7208,0.7209,0.7208,0.7176,0.7175,0.7174,0.7174,0,0.7131,0.714,0.7137,0.7137,0.7135,0.7135,0.7138,0.7133,0.7156,0.7152,0.7147,0.7145,0.7142,0.7139,0.7139,0.7144,0.7163,0.7165,0.716,0.7155,0.715,0.7153,0.7234,0.7167,0.7168,0.7168,0.7169,0.7169,0.708,0.7071,0.7079,0.7075,0.7079,0.7081,0.7074,0.7084,0.7081,0.708,0.7093,0.7085,0.7092,0.7095,0.7098,0.7092,0.7104,0.7097,0.7095,0.7093,0.709,0.715,0.7092,0.7092,0.7093,0.7093,0.7093,0,0.7016,0.7023,0.7019,0.7022,0.7019,0.7037,0.7041,0.7037,0.703,0.7035,0.7033,0.7028,0.7024,0.7036,0.7035,0.7028,0.7037,0.7027,0.7028,0.7029,0.7079,0.7084,0.702,0.702,0.702,0.702,0.702,0.702,0.6982,0.6967,0.6977,0.6965,0.6972,0.6965,0.6966,0.6968,0.6972,0.6965,0.6962,0.697,0.6978,0.6978,0.6975,0.6979,0.6978,0.6965,0.6972,0.7018,0.7025,0.7032,0.7037,0.6965,0.6965,0.6923,0.6922,0.6922]}]]